QPF
0.01 0.01 0.00 0.00 0.00 0.00 0.00 0.00 0.00 0.01 0.02 0.01 0.00 0.00 0.01 0.00 0.00 0.00 0.04 0.04 0.01 0.01 0.02 0.02 0.02 0.02 0.02 0.01 0.01 0.01 0.01 0.02 0.04 0.05 0.04 0.03 0.02 0.04 0.05 0.06 0.06 0.07 0.06 0.05
0.00 0.03 0.02 0.00 0.00 0.00 0.00 0.00 0.00 0.00 0.01 0.01 0.00 0.00 0.01 0.00 0.00 0.01 0.04 0.04 0.01 0.01 0.02 0.03 0.02 0.02 0.02 0.01 0.01 0.01 0.01 0.02 0.03 0.03 0.03 0.03 0.02 0.03 0.04 0.04 0.04 0.07 0.07 0.06
0.00 0.02 0.01 0.00 0.00 0.00 0.00 0.00 0.00 0.00 0.00 0.00 0.00 0.00 0.00 0.00 0.01 0.06 0.11 0.07 0.02 0.01 0.02 0.02 0.02 0.02 0.01 0.01 0.01 0.01 0.01 0.01 0.01 0.03 0.03 0.04 0.03 0.04 0.05 0.05 0.05 0.06 0.07 0.08
0.00 0.01 0.01 0.01 0.00 0.00 0.00 0.00 0.00 0.00 0.01 0.02 0.01 0.00 0.01 0.01 0.01 0.02 0.05 0.04 0.02 0.01 0.02 0.01 0.01 0.01 0.01 0.01 0.02 0.01 0.01 0.01 0.01 0.02 0.03 0.04 0.04 0.05 0.06 0.05 0.05 0.05 0.05 0.05
0.01 0.02 0.01 0.01 0.00 0.00 0.00 0.01 0.01 0.00 0.01 0.04 0.01 0.00 0.01 0.01 0.01 0.01 0.01 0.01 0.01 0.02 0.02 0.01 0.02 0.02 0.01 0.01 0.02 0.01 0.01 0.02 0.01 0.01 0.02 0.03 0.03 0.05 0.05 0.05 0.05 0.05 0.06 0.06
0.01 0.02 0.03 0.02 0.01 0.00 0.00 0.01 0.01 0.00 0.00 0.02 0.02 0.03 0.02 0.01 0.00 0.00 0.00 0.01 0.01 0.01 0.02 0.02 0.02 0.02 0.02 0.02 0.02 0.02 0.02 0.04 0.04 0.03 0.03 0.03 0.03 0.04 0.04 0.04 0.05 0.07 0.09 0.08
0.01 0.02 0.03 0.02 0.01 0.01 0.02 0.03 0.02 0.00 0.00 0.01 0.04 0.05 0.02 0.01 0.01 0.01 0.00 0.00 0.00 0.01 0.01 0.02 0.02 0.03 0.04 0.05 0.04 0.03 0.04 0.04 0.03 0.03 0.03 0.03 0.03 0.03 0.04 0.04 0.07 0.11 0.13 0.11
0.01 0.02 0.05 0.03 0.02 0.02 0.03 0.03 0.02 0.00 0.02 0.03 0.02 0.01 0.01 0.01 0.01 0.01 0.00 0.00 0.01 0.01 0.01 0.01 0.02 0.04 0.04 0.04 0.03 0.03 0.03 0.02 0.02 0.02 0.02 0.02 0.03 0.03 0.04 0.04 0.10 0.15 0.14 0.11
0.03 0.04 0.05 0.05 0.04 0.02 0.01 0.01 0.01 0.00 0.01 0.01 0.01 0.01 0.00 0.00 0.00 0.00 0.00 0.00 0.01 0.01 0.01 0.02 0.04 0.05 0.06 0.06 0.05 0.03 0.03 0.03 0.03 0.03 0.03 0.03 0.04 0.04 0.03 0.03 0.04 0.06 0.06 0.04
0.04 0.04 0.04 0.03 0.03 0.04 0.02 0.02 0.02 0.01 0.01 0.01 0.01 0.01 0.00 0.00 0.00 0.00 0.00 0.00 0.01 0.01 0.02 0.03 0.04 0.07 0.08 0.08 0.07 0.05 0.04 0.04 0.04 0.04 0.04 0.05 0.05 0.05 0.04 0.04 0.03 0.04 0.05 0.04
0.07 0.06 0.06 0.03 0.03 0.06 0.06 0.03 0.03 0.03 0.02 0.01 0.01 0.00 0.00 0.00 0.00 0.00 0.01 0.01 0.01 0.01 0.01 0.03 0.03 0.05 0.07 0.08 0.07 0.06 0.05 0.05 0.05 0.05 0.05 0.04 0.04 0.04 0.03 0.03 0.03 0.03 0.04 0.04
0.08 0.07 0.07 0.05 0.05 0.05 0.05 0.03 0.02 0.04 0.03 0.02 0.03 0.01 0.00 0.01 0.01 0.01 0.01 0.01 0.02 0.02 0.03 0.04 0.04 0.04 0.07 0.08 0.10 0.10 0.07 0.05 0.05 0.05 0.05 0.04 0.03 0.02 0.02 0.02 0.01 0.02 0.03 0.03
0.04 0.04 0.05 0.04 0.04 0.03 0.03 0.02 0.02 0.03 0.03 0.02 0.03 0.02 0.01 0.02 0.02 0.02 0.01 0.02 0.01 0.02 0.03 0.05 0.05 0.05 0.05 0.07 0.09 0.13 0.11 0.08 0.07 0.07 0.06 0.04 0.03 0.02 0.02 0.02 0.03 0.02 0.02 0.03
0.01 0.01 0.02 0.02 0.02 0.01 0.02 0.02 0.03 0.03 0.04 0.03 0.02 0.01 0.02 0.03 0.02 0.02 0.03 0.03 0.02 0.02 0.04 0.05 0.06 0.06 0.05 0.05 0.07 0.08 0.08 0.10 0.11 0.12 0.13 0.11 0.08 0.05 0.03 0.03 0.02 0.02 0.02 0.03
0.03 0.02 0.03 0.02 0.02 0.02 0.02 0.02 0.04 0.03 0.02 0.02 0.03 0.04 0.05 0.04 0.04 0.03 0.03 0.02 0.02 0.02 0.03 0.05 0.06 0.05 0.05 0.05 0.06 0.06 0.05 0.07 0.08 0.09 0.09 0.08 0.06 0.05 0.03 0.03 0.02 0.03 0.03 0.03
0.03 0.02 0.03 0.03 0.03 0.04 0.03 0.02 0.02 0.02 0.02 0.02 0.02 0.02 0.02 0.02 0.03 0.03 0.02 0.02 0.02 0.02 0.04 0.04 0.05 0.05 0.05 0.05 0.06 0.05 0.05 0.06 0.05 0.04 0.03 0.04 0.03 0.02 0.02 0.02 0.02 0.02 0.02 0.02
0.04 0.03 0.03 0.03 0.03 0.04 0.03 0.02 0.02 0.02 0.02 0.02 0.02 0.03 0.03 0.03 0.04 0.04 0.03 0.03 0.03 0.03 0.04 0.03 0.04 0.06 0.06 0.06 0.05 0.06 0.06 0.06 0.06 0.04 0.03 0.03 0.03 0.02 0.02 0.02 0.02 0.02 0.03 0.02
0.06 0.04 0.04 0.04 0.04 0.04 0.03 0.03 0.02 0.02 0.02 0.02 0.03 0.03 0.03 0.04 0.04 0.04 0.04 0.03 0.04 0.04 0.03 0.03 0.04 0.06 0.08 0.06 0.06 0.06 0.07 0.07 0.06 0.05 0.04 0.03 0.04 0.03 0.03 0.03 0.03 0.03 0.03 0.03
0.05 0.07 0.07 0.06 0.05 0.04 0.03 0.03 0.03 0.02 0.02 0.02 0.02 0.03 0.03 0.04 0.04 0.04 0.03 0.03 0.03 0.04 0.04 0.03 0.04 0.05 0.07 0.07 0.06 0.05 0.06 0.09 0.09 0.09 0.08 0.08 0.06 0.05 0.04 0.04 0.04 0.04 0.04 0.03
0.06 0.08 0.07 0.06 0.05 0.04 0.03 0.03 0.02 0.02 0.02 0.02 0.03 0.04 0.04 0.04 0.04 0.04 0.03 0.03 0.04 0.05 0.04 0.04 0.04 0.04 0.06 0.07 0.06 0.05 0.07 0.09 0.10 0.11 0.10 0.09 0.08 0.06 0.05 0.04 0.04 0.05 0.05 0.04
0.08 0.09 0.07 0.07 0.06 0.04 0.02 0.02 0.02 0.03 0.02 0.03 0.04 0.05 0.05 0.05 0.04 0.04 0.04 0.05 0.07 0.07 0.06 0.07 0.05 0.05 0.06 0.06 0.05 0.03 0.03 0.06 0.08 0.08 0.06 0.07 0.08 0.07 0.05 0.04 0.05 0.05 0.06 0.06
0.10 0.10 0.07 0.07 0.07 0.05 0.03 0.03 0.04 0.04 0.04 0.05 0.06 0.05 0.06 0.07 0.05 0.05 0.05 0.07 0.09 0.11 0.07 0.07 0.05 0.06 0.05 0.04 0.02 0.01 0.02 0.03 0.03 0.04 0.05 0.05 0.06 0.05 0.05 0.04 0.04 0.04 0.04 0.04
0.12 0.12 0.10 0.09 0.08 0.06 0.06 0.06 0.05 0.06 0.05 0.06 0.07 0.07 0.07 0.07 0.06 0.05 0.05 0.06 0.09 0.12 0.09 0.07 0.05 0.05 0.03 0.03 0.02 0.02 0.02 0.01 0.02 0.02 0.02 0.03 0.03 0.04 0.05 0.05 0.04 0.04 0.04 0.04
0.12 0.12 0.12 0.11 0.10 0.09 0.10 0.09 0.07 0.06 0.06 0.06 0.07 0.08 0.08 0.08 0.08 0.07 0.06 0.07 0.09 0.10 0.07 0.06 0.05 0.05 0.04 0.03 0.02 0.02 0.01 0.01 0.01 0.02 0.02 0.02 0.02 0.03 0.03 0.04 0.03 0.03 0.03 0.03
0.11 0.12 0.12 0.12 0.13 0.13 0.13 0.11 0.09 0.08 0.07 0.07 0.08 0.08 0.08 0.08 0.09 0.09 0.08 0.07 0.08 0.07 0.06 0.07 0.06 0.05 0.04 0.04 0.04 0.03 0.02 0.02 0.01 0.01 0.01 0.01 0.01 0.01 0.01 0.01 0.01 0.01 0.01 0.01
0.12 0.12 0.12 0.14 0.17 0.16 0.12 0.10 0.09 0.08 0.08 0.08 0.08 0.08 0.08 0.09 0.09 0.09 0.08 0.07 0.06 0.06 0.05 0.04 0.04 0.04 0.03 0.03 0.03 0.03 0.03 0.02 0.01 0.01 0.01 0.01 0.01 0.01 0.01 0.00 0.00 0.00 0.00 0.01
0.09 0.10 0.10 0.13 0.15 0.13 0.11 0.09 0.08 0.06 0.06 0.06 0.07 0.09 0.08 0.08 0.08 0.07 0.06 0.05 0.05 0.05 0.04 0.03 0.02 0.03 0.02 0.01 0.01 0.01 0.01 0.01 0.01 0.00 0.00 0.01 0.01 0.01 0.01 0.01 0.00 0.00 0.00 0.00
MSLP
1007.32 1007.33 1007.30 1007.26 1007.20 1007.14 1007.06 1006.95 1006.80 1006.62 1006.41 1006.19 1006.01 1005.90 1005.89 1006.01 1006.26 1006.62 1007.08 1007.58 1008.07 1008.51 1008.85 1009.10 1009.23 1009.29 1009.29 1009.26 1009.24 1009.24 1009.28 1009.34 1009.41 1009.46 1009.48 1009.46 1009.39 1009.29 1009.17 1009.07 1009.00 1009.00 1009.08 1009.25
1007.59 1007.51 1007.34 1007.12 1006.87 1006.62 1006.37 1006.14 1005.92 1005.72 1005.54 1005.41 1005.34 1005.36 1005.47 1005.70 1006.04 1006.48 1006.99 1007.53 1008.07 1008.57 1008.98 1009.31 1009.54 1009.68 1009.76 1009.79 1009.81 1009.83 1009.86 1009.90 1009.94 1009.97 1009.98 1009.96 1009.91 1009.83 1009.75 1009.68 1009.66 1009.68 1009.78 1009.95
1008.01 1007.85 1007.57 1007.20 1006.78 1006.34 1005.92 1005.53 1005.20 1004.93 1004.73 1004.62 1004.60 1004.69 1004.90 1005.21 1005.63 1006.15 1006.73 1007.35 1007.97 1008.55 1009.07 1009.50 1009.84 1010.09 1010.26 1010.37 1010.44 1010.49 1010.54 1010.58 1010.61 1010.64 1010.66 1010.66 1010.65 1010.63 1010.61 1010.62 1010.66 1010.73 1010.86 1011.04
1008.49 1008.29 1007.94 1007.46 1006.90 1006.30 1005.71 1005.17 1004.70 1004.33 1004.07 1003.93 1003.92 1004.04 1004.30 1004.68 1005.18 1005.78 1006.44 1007.14 1007.85 1008.53 1009.16 1009.70 1010.15 1010.50 1010.77 1010.96 1011.09 1011.19 1011.26 1011.32 1011.37 1011.42 1011.47 1011.53 1011.58 1011.64 1011.71 1011.80 1011.92 1012.06 1012.23 1012.43
1008.93 1008.72 1008.33 1007.79 1007.14 1006.43 1005.72 1005.04 1004.46 1003.98 1003.64 1003.45 1003.43 1003.56 1003.85 1004.28 1004.84 1005.50 1006.24 1007.03 1007.83 1008.59 1009.31 1009.95 1010.49 1010.93 1011.28 1011.55 1011.74 1011.89 1012.00 1012.09 1012.18 1012.28 1012.39 1012.51 1012.64 1012.79 1012.96 1013.15 1013.34 1013.55 1013.77 1013.98
1009.22 1009.02 1008.64 1008.09 1007.41 1006.65 1005.87 1005.12 1004.46 1003.91 1003.51 1003.28 1003.24 1003.37 1003.68 1004.15 1004.75 1005.47 1006.27 1007.11 1007.97 1008.80 1009.58 1010.28 1010.90 1011.41 1011.82 1012.14 1012.39 1012.59 1012.75 1012.90 1013.04 1013.20 1013.38 1013.57 1013.79 1014.03 1014.28 1014.55 1014.82 1015.08 1015.33 1015.57
1009.30 1009.14 1008.79 1008.28 1007.63 1006.90 1006.13 1005.38 1004.70 1004.13 1003.71 1003.47 1003.42 1003.56 1003.88 1004.37 1005.00 1005.75 1006.58 1007.45 1008.33 1009.19 1010.00 1010.73 1011.37 1011.92 1012.37 1012.74 1013.05 1013.30 1013.52 1013.73 1013.95 1014.17 1014.42 1014.69 1014.98 1015.29 1015.61 1015.94 1016.25 1016.55 1016.82 1017.05
1009.18 1009.06 1008.78 1008.35 1007.80 1007.15 1006.46 1005.77 1005.15 1004.62 1004.23 1004.02 1003.99 1004.15 1004.48 1004.98 1005.62 1006.37 1007.19 1008.05 1008.92 1009.76 1010.55 1011.27 1011.91 1012.47 1012.96 1013.36 1013.72 1014.03 1014.32 1014.60 1014.89 1015.19 1015.51 1015.84 1016.19 1016.55 1016.91 1017.26 1017.59 1017.89 1018.16 1018.38
1008.91 1008.83 1008.64 1008.33 1007.91 1007.40 1006.85 1006.29 1005.78 1005.35 1005.05 1004.89 1004.91 1005.10 1005.45 1005.95 1006.57 1007.29 1008.07 1008.88 1009.69 1010.47 1011.21 1011.90 1012.51 1013.07 1013.56 1014.00 1014.40 1014.78 1015.14 1015.49 1015.85 1016.22 1016.60 1016.98 1017.37 1017.75 1018.12 1018.47 1018.79 1019.08 1019.32 1019.51
1008.58 1008.55 1008.45 1008.28 1008.01 1007.68 1007.31 1006.92 1006.57 1006.28 1006.09 1006.02 1006.09 1006.32 1006.68 1007.16 1007.75 1008.41 1009.12 1009.85 1010.58 1011.28 1011.94 1012.56 1013.14 1013.67 1014.16 1014.63 1015.08 1015.52 1015.95 1016.38 1016.81 1017.23 1017.66 1018.08 1018.48 1018.86 1019.22 1019.55 1019.84 1020.10 1020.30 1020.46
1008.28 1008.30 1008.29 1008.25 1008.15 1008.01 1007.82 1007.62 1007.44 1007.30 1007.24 1007.27 1007.41 1007.67 1008.04 1008.50 1009.03 1009.63 1010.25 1010.88 1011.50 1012.10 1012.68 1013.23 1013.75 1014.26 1014.75 1015.24 1015.73 1016.22 1016.72 1017.21 1017.70 1018.17 1018.63 1019.07 1019.47 1019.85 1020.18 1020.48 1020.74 1020.96 1021.13 1021.25
1008.07 1008.13 1008.22 1008.29 1008.34 1008.37 1008.36 1008.34 1008.32 1008.33 1008.39 1008.52 1008.72 1009.01 1009.38 1009.81 1010.29 1010.81 1011.34 1011.87 1012.39 1012.90 1013.39 1013.86 1014.34 1014.81 1015.30 1015.80 1016.32 1016.85 1017.39 1017.93 1018.46 1018.97 1019.45 1019.89 1020.30 1020.66 1020.98 1021.26 1021.49 1021.68 1021.83 1021.93
1007.94 1008.05 1008.20 1008.38 1008.56 1008.72 1008.86 1008.98 1009.11 1009.24 1009.41 1009.61 1009.88 1010.20 1010.57 1010.97 1011.42 1011.87 1012.33 1012.77 1013.21 1013.62 1014.04 1014.45 1014.88 1015.33 1015.80 1016.30 1016.83 1017.39 1017.95 1018.52 1019.06 1019.59 1020.08 1020.52 1020.92 1021.28 1021.59 1021.86 1022.09 1022.28 1022.42 1022.53
1007.86 1008.00 1008.21 1008.46 1008.72 1008.99 1009.24 1009.47 1009.70 1009.94 1010.19 1010.47 1010.78 1011.13 1011.51 1011.92 1012.34 1012.75 1013.16 1013.54 1013.92 1014.28 1014.63 1015.00 1015.38 1015.80 1016.25 1016.74 1017.27 1017.82 1018.38 1018.94 1019.49 1020.01 1020.50 1020.94 1021.34 1021.71 1022.02 1022.30 1022.55 1022.76 1022.93 1023.07
1007.74 1007.91 1008.16 1008.46 1008.78 1009.11 1009.43 1009.74 1010.04 1010.35 1010.67 1011.01 1011.38 1011.77 1012.19 1012.61 1013.03 1013.44 1013.83 1014.20 1014.53 1014.86 1015.18 1015.51 1015.86 1016.25 1016.67 1017.13 1017.62 1018.15 1018.69 1019.23 1019.76 1020.26 1020.74 1021.18 1021.58 1021.96 1022.29 1022.61 1022.89 1023.14 1023.35 1023.53
1007.55 1007.73 1008.00 1008.32 1008.67 1009.04 1009.40 1009.76 1010.11 1010.48 1010.86 1011.26 1011.69 1012.14 1012.60 1013.07 1013.53 1013.96 1014.37 1014.74 1015.08 1015.40 1015.71 1016.01 1016.34 1016.68 1017.07 1017.48 1017.94 1018.42 1018.91 1019.41 1019.90 1020.38 1020.84 1021.28 1021.69 1022.08 1022.45 1022.80 1023.13 1023.43 1023.70 1023.92
1007.25 1007.45 1007.72 1008.05 1008.42 1008.79 1009.17 1009.56 1009.96 1010.37 1010.81 1011.28 1011.78 1012.30 1012.83 1013.37 1013.88 1014.37 1014.82 1015.22 1015.59 1015.91 1016.21 1016.51 1016.80 1017.12 1017.46 1017.83 1018.23 1018.65 1019.09 1019.54 1019.99 1020.44 1020.88 1021.31 1021.72 1022.14 1022.54 1022.92 1023.30 1023.65 1023.96 1024.23
1006.90 1007.10 1007.38 1007.71 1008.07 1008.44 1008.83 1009.24 1009.67 1010.13 1010.63 1011.17 1011.75 1012.35 1012.97 1013.58 1014.17 1014.72 1015.23 1015.67 1016.06 1016.40 1016.71 1016.99 1017.27 1017.55 1017.84 1018.17 1018.52 1018.89 1019.27 1019.67 1020.09 1020.50 1020.92 1021.34 1021.76 1022.18 1022.61 1023.03 1023.43 1023.82 1024.17 1024.47
1006.58 1006.78 1007.05 1007.37 1007.72 1008.10 1008.49 1008.92 1009.39 1009.90 1010.46 1011.07 1011.73 1012.41 1013.11 1013.80 1014.47 1015.08 1015.63 1016.11 1016.52 1016.88 1017.18 1017.45 1017.70 1017.96 1018.22 1018.50 1018.80 1019.13 1019.48 1019.84 1020.22 1020.61 1021.01 1021.42 1021.84 1022.28 1022.71 1023.14 1023.57 1023.96 1024.32 1024.64
1006.35 1006.56 1006.83 1007.14 1007.49 1007.86 1008.27 1008.72 1009.22 1009.78 1010.40 1011.08 1011.81 1012.57 1013.34 1014.09 1014.80 1015.46 1016.03 1016.54 1016.96 1017.31 1017.60 1017.86 1018.09 1018.32 1018.56 1018.81 1019.09 1019.39 1019.71 1020.05 1020.41 1020.78 1021.17 1021.58 1021.99 1022.42 1022.85 1023.28 1023.70 1024.09 1024.45 1024.76
1006.28 1006.49 1006.76 1007.07 1007.41 1007.80 1008.22 1008.70 1009.24 1009.85 1010.52 1011.26 1012.05 1012.86 1013.67 1014.46 1015.19 1015.86 1016.45 1016.94 1017.35 1017.68 1017.96 1018.19 1018.41 1018.62 1018.84 1019.08 1019.34 1019.64 1019.95 1020.29 1020.64 1021.01 1021.39 1021.79 1022.20 1022.61 1023.03 1023.44 1023.84 1024.22 1024.56 1024.84
1006.34 1006.56 1006.83 1007.15 1007.50 1007.90 1008.34 1008.85 1009.43 1010.09 1010.81 1011.59 1012.41 1013.26 1014.09 1014.88 1015.61 1016.27 1016.83 1017.29 1017.67 1017.97 1018.22 1018.43 1018.63 1018.83 1019.05 1019.29 1019.56 1019.85 1020.18 1020.52 1020.88 1021.25 1021.63 1022.02 1022.41 1022.81 1023.21 1023.60 1023.97 1024.32 1024.64 1024.91
1006.44 1006.68 1006.96 1007.29 1007.66 1008.08 1008.56 1009.10 1009.72 1010.41 1011.18 1011.99 1012.84 1013.69 1014.52 1015.30 1016.01 1016.62 1017.14 1017.56 1017.90 1018.16 1018.38 1018.57 1018.76 1018.95 1019.17 1019.42 1019.71 1020.02 1020.36 1020.72 1021.09 1021.47 1021.84 1022.22 1022.61 1022.98 1023.36 1023.73 1024.08 1024.41 1024.70 1024.96
1006.48 1006.73 1007.03 1007.38 1007.78 1008.23 1008.74 1009.33 1009.99 1010.73 1011.52 1012.36 1013.22 1014.07 1014.89 1015.64 1016.31 1016.88 1017.35 1017.73 1018.03 1018.26 1018.45 1018.62 1018.80 1019.00 1019.23 1019.50 1019.80 1020.14 1020.49 1020.87 1021.25 1021.62 1022.00 1022.37 1022.74 1023.10 1023.45 1023.80 1024.13 1024.45 1024.74 1025.01
1006.34 1006.62 1006.94 1007.32 1007.75 1008.24 1008.80 1009.43 1010.14 1010.91 1011.73 1012.60 1013.47 1014.31 1015.11 1015.84 1016.48 1017.01 1017.45 1017.79 1018.05 1018.26 1018.44 1018.61 1018.79 1019.00 1019.24 1019.53 1019.85 1020.21 1020.58 1020.96 1021.34 1021.72 1022.09 1022.45 1022.80 1023.14 1023.48 1023.82 1024.15 1024.46 1024.77 1025.05
1006.00 1006.30 1006.65 1007.06 1007.53 1008.06 1008.66 1009.34 1010.09 1010.90 1011.76 1012.64 1013.52 1014.37 1015.16 1015.88 1016.49 1017.01 1017.42 1017.75 1018.00 1018.21 1018.39 1018.57 1018.76 1018.99 1019.26 1019.56 1019.90 1020.27 1020.65 1021.03 1021.41 1021.78 1022.14 1022.48 1022.82 1023.15 1023.47 1023.80 1024.14 1024.46 1024.79 1025.09
1005.52 1005.84 1006.22 1006.65 1007.15 1007.72 1008.36 1009.08 1009.87 1010.72 1011.60 1012.51 1013.41 1014.26 1015.05 1015.77 1016.38 1016.90 1017.32 1017.65 1017.92 1018.14 1018.34 1018.54 1018.77 1019.02 1019.31 1019.63 1019.98 1020.35 1020.73 1021.11 1021.48 1021.84 1022.18 1022.51 1022.83 1023.15 1023.47 1023.80 1024.14 1024.48 1024.83 1025.17
Thickness
5753 5764 5769 5769 5771 5777 5776 5778 5774 5782 5784 5792 5801 5806 5810 5811 5811 5809 5807 5807 5808 5808 5808 5809 5809 5808 5808 5807 5806 5804 5799 5795 5791 5789 5786 5783 5780 5777 5775 5773 5771 5768 5765 5762
5739 5753 5760 5761 5770 5773 5776 5780 5781 5783 5783 5798 5801 5803 5801 5802 5802 5799 5798 5800 5802 5802 5802 5802 5803 5802 5802 5801 5801 5800 5796 5793 5790 5787 5783 5779 5777 5775 5772 5770 5768 5765 5762 5759
5723 5740 5743 5740 5760 5767 5771 5780 5782 5774 5781 5793 5788 5788 5791 5793 5793 5792 5792 5793 5794 5795 5796 5797 5798 5798 5796 5797 5797 5794 5792 5790 5787 5784 5779 5776 5774 5771 5769 5766 5764 5761 5758 5755
5720 5723 5710 5745 5777 5777 5772 5776 5784 5783 5785 5787 5786 5788 5791 5792 5789 5787 5787 5788 5788 5790 5791 5793 5794 5794 5794 5793 5791 5789 5786 5784 5783 5779 5775 5772 5770 5767 5765 5762 5759 5756 5754 5751
5711 5709 5720 5745 5763 5767 5762 5761 5777 5776 5779 5781 5784 5782 5779 5785 5786 5784 5785 5785 5785 5787 5787 5788 5788 5789 5788 5787 5785 5782 5780 5778 5777 5775 5771 5767 5764 5762 5760 5758 5754 5752 5749 5746
5701 5699 5701 5732 5758 5772 5763 5746 5769 5772 5770 5772 5773 5759 5762 5776 5779 5779 5780 5780 5780 5781 5781 5780 5781 5783 5780 5778 5777 5775 5774 5773 5773 5770 5767 5763 5760 5757 5756 5753 5750 5747 5744 5740
5694 5696 5710 5737 5752 5756 5730 5732 5758 5765 5764 5763 5760 5758 5762 5769 5768 5769 5770 5770 5771 5772 5771 5771 5774 5774 5771 5770 5769 5770 5770 5768 5766 5765 5762 5759 5756 5753 5750 5747 5744 5740 5737 5733
5694 5689 5697 5731 5737 5729 5728 5745 5751 5755 5757 5754 5754 5756 5757 5756 5757 5758 5759 5760 5761 5761 5761 5763 5766 5765 5763 5762 5764 5765 5763 5761 5759 5758 5757 5754 5750 5746 5744 5741 5737 5733 5730 5726
5694 5694 5710 5722 5721 5727 5734 5735 5740 5745 5747 5747 5746 5745 5746 5746 5747 5748 5750 5751 5752 5752 5751 5753 5756 5757 5754 5755 5758 5758 5755 5753 5751 5749 5747 5745 5742 5739 5736 5734 5732 5728 5724 5720
5687 5693 5702 5710 5714 5718 5724 5726 5731 5737 5738 5738 5735 5735 5734 5735 5735 5737 5740 5742 5743 5743 5742 5743 5747 5748 5748 5749 5750 5749 5747 5744 5742 5739 5736 5733 5731 5729 5726 5724 5724 5721 5717 5713
5677 5682 5688 5695 5701 5706 5710 5717 5721 5726 5728 5726 5724 5725 5725 5724 5725 5727 5729 5732 5733 5733 5733 5734 5737 5738 5741 5742 5743 5740 5738 5736 5733 5730 5726 5721 5716 5712 5712 5708 5710 5712 5709 5706
5668 5678 5679 5681 5690 5695 5697 5702 5708 5710 5711 5715 5714 5714 5716 5716 5717 5719 5720 5722 5723 5724 5725 5726 5728 5729 5732 5734 5735 5732 5729 5727 5725 5722 5717 5713 5708 5701 5696 5697 5697 5698 5697 5695
5672 5677 5678 5679 5684 5687 5689 5694 5699 5699 5700 5703 5704 5706 5708 5708 5709 5710 5712 5713 5714 5716 5717 5719 5719 5721 5723 5726 5725 5723 5720 5719 5717 5715 5711 5708 5704 5699 5692 5687 5685 5684 5684 5682
5670 5669 5666 5670 5674 5679 5682 5686 5689 5691 5692 5694 5696 5698 5700 5700 5701 5702 5703 5705 5708 5710 5711 5712 5712 5713 5715 5717 5716 5714 5713 5711 5710 5707 5705 5702 5698 5694 5690 5686 5681 5675 5671 5669
5660 5663 5662 5666 5670 5672 5675 5677 5677 5679 5681 5682 5686 5687 5689 5690 5691 5693 5696 5699 5701 5703 5703 5704 5704 5705 5708 5708 5707 5706 5705 5703 5701 5700 5697 5694 5691 5687 5683 5679 5674 5669 5664 5660
5652 5655 5657 5659 5660 5663 5666 5667 5667 5669 5671 5673 5676 5678 5681 5684 5685 5686 5689 5691 5692 5693 5694 5695 5696 5697 5699 5700 5698 5697 5696 5694 5693 5691 5689 5685 5682 5679 5675 5670 5666 5662 5658 5654
5641 5643 5646 5649 5652 5656 5658 5660 5661 5662 5664 5666 5667 5670 5672 5674 5676 5678 5680 5683 5684 5685 5687 5687 5688 5690 5691 5691 5691 5689 5686 5684 5683 5682 5679 5676 5673 5669 5665 5662 5657 5653 5649 5645
5638 5641 5644 5646 5648 5650 5651 5653 5655 5656 5656 5659 5660 5661 5663 5666 5668 5670 5673 5675 5676 5677 5678 5680 5681 5682 5682 5683 5682 5681 5678 5676 5673 5671 5668 5666 5663 5659 5656 5652 5648 5644 5639 5635
5634 5637 5640 5643 5645 5646 5647 5648 5648 5650 5651 5652 5653 5654 5656 5659 5662 5664 5667 5667 5667 5667 5669 5671 5671 5674 5674 5673 5673 5672 5670 5667 5664 5661 5658 5654 5653 5649 5646 5643 5639 5635 5631 5626
5630 5634 5637 5638 5640 5642 5643 5643 5643 5643 5644 5646 5647 5648 5650 5652 5655 5657 5659 5658 5659 5661 5661 5662 5663 5664 5664 5664 5663 5663 5661 5659 5655 5651 5648 5646 5643 5640 5636 5632 5629 5624 5620 5615
5623 5626 5629 5631 5633 5635 5637 5637 5637 5637 5639 5641 5641 5642 5644 5646 5648 5650 5650 5649 5649 5652 5653 5653 5654 5654 5654 5653 5653 5653 5651 5649 5647 5644 5640 5637 5633 5630 5626 5621 5617 5613 5608 5604
5615 5618 5621 5624 5626 5627 5630 5632 5633 5633 5634 5635 5635 5636 5637 5638 5640 5641 5642 5641 5642 5643 5646 5646 5646 5644 5644 5645 5646 5644 5642 5640 5638 5634 5631 5627 5624 5620 5615 5611 5607 5602 5598 5594
5610 5613 5615 5617 5618 5620 5623 5625 5626 5627 5628 5628 5629 5629 5631 5632 5634 5634 5632 5633 5635 5634 5637 5636 5634 5634 5635 5637 5637 5635 5633 5631 5628 5625 5621 5617 5614 5610 5607 5603 5599 5594 5589 5585
5603 5605 5607 5610 5611 5613 5614 5616 5618 5620 5621 5622 5622 5623 5624 5625 5626 5627 5626 5625 5626 5627 5627 5625 5626 5626 5626 5629 5628 5627 5625 5622 5619 5616 5612 5609 5606 5603 5599 5595 5590 5586 5581 5577
5598 5600 5602 5603 5605 5605 5606 5608 5609 5611 5613 5614 5615 5616 5618 5619 5619 5619 5619 5618 5617 5618 5618 5616 5617 5617 5619 5621 5619 5617 5615 5612 5610 5606 5603 5600 5597 5594 5590 5586 5582 5577 5573 5568
5593 5595 5596 5598 5598 5599 5601 5602 5603 5604 5606 5606 5607 5608 5610 5610 5611 5610 5610 5611 5611 5610 5611 5611 5610 5610 5611 5611 5609 5607 5605 5602 5600 5597 5594 5591 5588 5584 5580 5577 5572 5568 5564 5559
5587 5589 5589 5590 5590 5592 5595 5596 5596 5597 5599 5600 5600 5600 5601 5602 5603 5603 5603 5603 5604 5604 5603 5603 5603 5603 5602 5601 5599 5597 5595 5593 5591 5588 5585 5582 5578 5575 5571 5568 5564 5560 5555 5551